Showing default

CTS, 8585

Orbit data source: Space-Track

CTS, 8585 is a payload satellite owned by CRC (CA) in GEO that was launched on Sat, 17 Jan 1976 UTC via a DELTA 2914 launch vehicle from the Air Force Eastern Test Range (AFETR). Payloads include a variety of satellites, spacecraft, and rockets equipped with specific instruments for various scientific and technological missions. These include communications satellites like Starlink; space stations such as the ISS; scientific satellites like the Hubble; Earth observation satellites from companies like Planet Labs, Umbra, and HawkEye 360; GPS; miniature CubeSats for education and research; and military/defense satellites.

Loading next visibility...
CTS details
Identifier
8585, 1976-004A
Orbit
GEO
Last TLE update12 hours ago
Origin
Flag of CACRC (CA)
ManufacturerCRC
MissionCivil Communications
Bus & MotorCTS, Unknown motor
Mass685 kg wet, 311 kg dry
Launch date (UTC)
1976-01-17 (49 years ago)
Launch vehicle
DELTA 2914
Launch site
Air Force Eastern Test Range (AFETR)
Object type
Payload
Rocket body
Debris
Shape & HBRCyl + 2 Pan, 16.5 m
Radar Cross Section11.235 m², Large (>1 m²)

Expand to show TLE details & history

TLE from 12 hours ago
0 CTS
1 08585U 76004A   24361.22537302 -.00000143  00000-0  00000-0 0  9992
2 08585   5.3172 279.6873 0014891 275.2132 249.5195  1.00338441116909
Epoch: 2024-12-26T05:24Z
Definitive object data (Epoch: 2024-12-26T05:24:32.228Z)
Latitude1.43674°
Longitude-92.03381°
Altitude35,789.384 km
Speed3.074 km/s
True Right ascension05h 37m 13s
True Declination1° 26' 07"
Sunlit
Object was in daylight at TLE epoch
Visualization TLE readout
Latitude-1.95248°
Longitude82.12991°
Altitude35,739.573 km
Speed3.077 km/s
Apparent Right ascension17h 20m 55s
Apparent Declination-8° 23' 02"
Sunlit
Object is in daylight
Visualization observer readout
Local Sidereal Time16:19:46
Azimuth160.195° S
Elevation39.672°
Doppler factor1
Orbital elements
Apogee altitude35,831.738 km
Perigee altitude35,706.215 km
Semi-major axis42,147.114 km
Eccentricity0.0014891
Inclination5.3172°
RAAN279.6873°
Arg. of periapsis275.2132°
True anomaly249.35975°
Mean anomaly249.5195°
Eccentric anomaly249.43962°
Mean motion0.25084 °/min
BSTARUnknown
Orbital period1435.2 mins
Loading historical data...
8585 neighbors
Authenticating...
Loading maneuver chart data...
Loading historical data...
Loading historical data...
Loading historical data...
Loading historical data...
Loading historical data...
Loading historical data...
Loading historical data...

CTS Visibility forecast

Observer location: undefined°, undefined

Span
Click to sort rows by Start time (UTC) header in descending order
Start Az.
Max El. time (UTC)
Max El. Az.
Max El.
End time (UTC)
End Az.
1440 mins2024-12-26 16:57:31.572Z160.202° S2024-12-27 00:24:31.572Z157.271° SSE36.412°2024-12-27 16:57:31.572Z159.831° S
|